Regional Weather Roundup
Issued by NWS

Home | Current Version | Previous Version | Graphics & Text | Print | Product List | Glossary On
Versions: 1 2 3 4 5 6 7 8 9 10 11 12 13 14 15 16 17 18 19 20 21 22 23 24 25 26 27 28 29 30 31 32 33 34 35 36 37 38 39 40 41 42 43 44 45 46 47 48 49 50
000
ASUS43 KLOT 250303
RWRIL

ILLINOIS REGIONAL WEATHER ROUNDUP
NATIONAL WEATHER SERVICE CHICAGO/ROMEOVILLE IL
1000 PM CDT SUN JUL 24 2016

NOTE: "FAIR" INDICATES FEW OR NO CLOUDS BELOW 12,000 FEET WITH NO
SIGNIFICANT WEATHER AND/OR OBSTRUCTIONS TO VISIBILITY.

* THESE STATIONS ARE NOT UNDER NWS QUALITY CONTROL. THEY ALSO MAY NOT
  REPORT WEATHER SUCH AS PRECIPITATION OR FOG.

ILZ001-002-007-009-015-016-024-250400-
NORTHWEST ILLINOIS

CITY           SKY/WX    TMP DP  RH WIND       PRES   REMARKS
MOLINE         CLOUDY    81  66  60 W3        29.92R HX  83
STERLING*      CLOUDY    80  70  71 NW5       29.92R HX  83
SAVANNA*       CLOUDY    78  69  75 NW3       29.91R HX  80
$$

ILZ003-004-008-010-011-017-018-250400-
NORTH CENTRAL ILLINOIS

CITY           SKY/WX    TMP DP  RH WIND       PRES   REMARKS
ROCKFORD       CLOUDY    81  68  64 NW12      29.91S HX  84
FREEPORT*      PTCLDY    74  68  83 SW3       29.92S
ROCHELLE*      CLOUDY    80  73  81 NW5       29.92R HX  84
DE KALB*       CLOUDY    81  76  85 W7        29.92R HX  87
$$

ILZ005-006-012>014-019>023-250400-
NORTHEAST ILLINOIS

CITY           SKY/WX    TMP DP  RH WIND       PRES   REMARKS
CHICAGO-OHARE  CLOUDY    78  73  84 W3        29.89R HX  81
CHICAGO-MIDWAY CLOUDY    76  69  79 S9        29.89R
AURORA         CLOUDY    76  70  82 S6        29.91R
LANSING*       CLOUDY    73  66  81 SW8       29.92R THUNDER
WAUKEGAN       CLOUDY    80  69  69 NW3       29.86S HX  83
DUPAGE AIRPORT CLOUDY    78  68  71 SW10      29.89R HX  80
KANKAKEE*      TSTM      71  67  88 S8        29.96
WHEELING       CLOUDY    77  71  82 E3        29.89S
MORRIS*        CLOUDY    74  67  79 S6        29.92R
NORTHERLY ISL    N/A     79  64  60 W8          N/A  HX  81
$$

LMZ740>746-250400-
SOUTHERN LAKE MICHIGAN

STATION/POSITION SKY/WX   TEMP    WIND        PRES    VSBY  WAVE
                          AIR SEA DIR/SP/G                  HT/PER
                          (F)     (DEG/KT/KT) (MB)    (MI)  (FT/S)
SOUTHERN BUOY              77 72  220/ 16/ 19 1009.6          2/ 4
WILMETTE HARBOR            70 63  250/ 10/ 12   N/A           1/ 3
HARRISON CRIB              80     230/  8/  9   N/A
BURNHAM HARBOR             79     250/  6/  9   N/A
CALUMET HARBOR             73                   N/A
BURNS HARBOR               75     200/ 15/ 18 1012.2F
MICHIGAN CITY              75     250/ 13/ 14   N/A
MICHIGAN CITY 6N           76 74  220/ 14/ 21   N/A           5/ 5
ST. JOSEPH                 75 74  230/ 16/ 21 1011.8R         3/ 4
$$

ILZ025>027-034>036-040-047-049-050-058-095>099-250400-
WEST-CENTRAL ILLINOIS

CITY           SKY/WX    TMP DP  RH WIND       PRES   REMARKS
QUINCY         CLOUDY    80  70  71 N6        29.91F HX  83
GALESBURG*     CLOUDY    80  72  76 W3        29.94S HX  84
MACOMB*        CLOUDY    75  73  93 N8        29.93F THUNDER
JACKSONVILLE*  CLOUDY    84  80  88 NW6       29.88F THUNDER HX  96
PITTSFIELD*    CLEAR     83  78  87 NW3       29.91F HX  92
$$

ILZ028>032-037-038-041>044-048-051>054-059>061-250400-
CENTRAL ILLINOIS

CITY           SKY/WX    TMP DP  RH WIND       PRES   REMARKS
PONTIAC        CLOUDY    72  70  94 S6        29.92F THUNDER
BLOOMINGTON    TSTM      71  70  96 E13       29.96R FOG
DECATUR        CLEAR     85  78  80 S10       29.92S HX  96
PEORIA         CLOUDY    81  76  84 S6        29.89F THUNDER HX  87
LACON*         CLOUDY    78  72  81 E3        29.90S HX  81
SPRINGFIELD    TSTM      79  74  84 E9        29.94R VSB 1   HX  82
TAYLORVILLE    CLEAR     82  79  90 NW9       29.92R HX  92
$$

ILZ033-039-045-046-055>057-062-063-250400-
EAST-CENTRAL ILLINOIS

CITY           SKY/WX    TMP DP  RH WIND       PRES   REMARKS
CHAMPAIGN      PTCLDY    80  74  81 N29G36    29.99R HX  85
MATTOON        CLEAR     82  77  84 S5        29.94R HX  90
PARIS*         CLEAR     79  79 100 CALM      29.96R HX  83
$$

ILZ079-100>102-250400-
SOUTHWEST ILLINOIS

CITY           SKY/WX    TMP DP  RH WIND       PRES   REMARKS
ALTON          PTCLDY    84  77  79 S8        29.92  HX  94
BELLEVILLE     PTCLDY    83  81  95 S2        29.91F HX  97
CAHOKIA*       CLEAR     86  77  74 S7        29.91F HX  97
SPARTA*        CLEAR     84  77  79 S6        29.96S HX  93
$$

ILZ064>066-069>071-074>076-080>082-084>086-088>090-092>094-250400-
SOUTH-CENTRAL ILLINOIS

CITY           SKY/WX    TMP DP  RH WIND       PRES   REMARKS
CARBONDALE     PTCLDY    80  75  84 S5        29.96R HX  85
CAIRO*         CLEAR     79  78  95 CALM      29.96R HX  84
EFFINGHAM*     CLEAR     83  78  87 SE6       29.95F HX  92
MARION         PTCLDY    82  77  83 CALM      29.97S HX  91
MT. VERNON     CLEAR     79  72  78 CALM      29.96S HX  82
CENTRALIA*     CLEAR     82  77  85 S7        29.94S HX  89
SALEM*         CLEAR     83  76  80 S5        29.94S HX  90
METROPOLIS*    CLEAR     80  78  95 CALM      29.98R HX  85
$$

ILZ067-068-072-073-078-083-087-091-250400-
SOUTHEAST ILLINOIS

CITY           SKY/WX    TMP DP  RH WIND       PRES   REMARKS
LAWRENCEVILLE  CLEAR     81  78  91 S7        29.95S HX  89
FLORA*         CLEAR     82  78  88 S5        29.95S HX  90
FAIRFIELD*     CLEAR     81  77  89 S3        29.94S HX  88
HARRISBURG*    CLEAR     81  79  94 CALM      29.96F HX  90
ROBINSON*      CLEAR     78  77  96 CALM      29.96R HX  80
CARMI*         CLEAR     79  79  99 CALM      29.96R HX  84
$$

ABBREVIATIONS USED IN REMARKS
   TC - TEMPERATURE IN CELSIUS
  WCI - WIND CHILL INDEX
   HX - HEAT INDEX
  VSB - VISIBILITY
$$




USA.gov is the U.S. government's official web portal to all federal, state and local government web resources and services.